SCP
-0 0 -0 -0 -0 -0 -0 -0 -0 -0 -0 -0 -0 -0 -0 -0 -0 -0 -0 -0 -0 -0 -0 -0 -0 -0 -0 -0 -0 -0 -0 -0 -0 -0 -0 -0 -0 -0 -0 -0 0 0 -0
0 0 -0 -0 -0 -0 -0 -0 -0 -0 -0 -0 -0 -0 -0 -0 -0 -0 -0 -0 -0 -0 -0 -0 -0 -0 -0 -0 -0 -0 -0 -0 -0 -0 -0 -0 -0 -0 -0 -0 0 0 -0
0 0 -0 -0 -0 -0 -0 -0 -0 -0 -0 -0 -0 -0 -0 -0 -0 -0 -0 -0 -0 -0 -0 -0 -0 -0 -0 -0 -0 -0 -0 -0 -0 -0 0 0 0 -0 -0 0 0 0 0
0 0 0 -0 -0 -0 -0 -0 -0 -0 -0 -0 -0 -0 -0 -0 -0 -0 -0 -0 -0 -0 -0 -0 -0 -0 -0 -0 -0 -0 0 0 0 0 0 0 0 0 0 0 0 0 0
0 0 0 0 -0 -0 -0 -0 -0 0 0 -0 -0 -0 -0 -0 -0 -0 -0 -0 -0 -0 -0 -0 -0 -0 -0 -0 0 0 0 0 0 0 0 0 0 0 0 0 0 0 0
0 0 0 0 0 0 0 0 0 0 0 0 0 0 0 0 0 0 -0 0 0 0 0 0 0 0 0 0 0 0 0 0 0 0 0 0 0 0 0 0 0 0 0
0 0 0 0 0 0 0 0 0 0 0 0 0 0 0 0 0 0 0 0 0 0 0 0 0 0 0 0 0 0 0 0 0 0 0 0 0 0 0 0 0 0 0
0 0 0 0 0 0 0 0 0 0 0 0 0 0 0 0 0 0 0 0 0 0 0 0 0 0 0 0 0 0 0 0 0 0 0 0 0 0 0 0 0 0 0
-0 0 0 0 0 0 0 0 0 0 0 0 0 0 0 0 0 0 0 0 0 0 0 0 0 0 0 0 0 0 0 0 0 0 0 0 0 0 0 0 0 0 0
0 -0 0 -0 0 0 0 0 0 0 0 0 0 0 0 0 0 0 0 0 0 0 0 0 0 0 0 0 0 0 0 0 0 0 0 0 0 0 0 0 0 0 0
0 0 0 0 0 0 0 0 0 0 0 0 0 0 0 0 0 0 0 0 0 0 0 0 0 0 0 0 0 0 0 0 0 0 0 0 0 0 0 0 0 0 0
0 0 0 0 0 0 0 0 0 0 0 0 0 0 0 0 0 0 0 0 0 0 0 0 0 0 0 0 0 0 0 0 0 0 0 0 0 0 0 0 0 0 0
0 0 0 0 0 0 0 0 0 0 0 0 0 0 0 0 0 0 0 0 0 0 0 0 0 0 0 0 0 0 0 0 0 0 0 0 0 0 0 0 0 0 0
0 0 0 0 0 0 0 0 0 0 0 0 0 0 0 0 0 0 0 0 0 0 0 0 0 0 0 0 0 0 0 0 0 0 0 0 0 0 0 0 0 0 0
0 0 0 0 0 0 0 0 0 0 0 0 0 0 0 0 0 0 0 0 0 0 0 0 0 0 0 0 0 0 0 0 0 0 0 0 0 0 0 0 0 0 0
0 0 0 0 0 0 0 0 0 0 0 0 0 0 0 0 0 0 0 0 0 0 0 0 0 0 0 0 0 0 0 0 0 0 0 0 0 0 0 0 0 0 0
0 0 0 0 0 0 0 0 0 0 0 0 0 0 0 0 0 0 0 0 0 0 0 0 0 0 0 0 0 0 0 0 0 0 0 0 0 0 0 0 0 0 0
0 0 0 0 0 0 0 0 0 0 0 0 0 0 0 0 0 0 0 0 0 0 0 0 0 0 0 0 0 0 0 0 0 0 0 0 0 0 0 0 0 0 0
0 0 0 0 0 0 0 0 0 0 0 0 0 0 0 0 0 0 0 0 0 0 0 0 0 0 0 0 0 0 0 0 0 0 0 0 0 0 0 0 0 0 0
0 0 0 0 0 0 0 0 0 0 0 0 0 0 0 0 0 0 0 0 0 0 0 0 0 0 0 0 0 0 0 0 0 0 0 0 0 0 0 0 0 0 0
0 0 0 0 0 0 0 0 0 0 0 0 0 0 0 0 0 0 0 0 0 0 0 0 0 0 0 0 0 0 0 0 0 0 0 0 0 0 0 0 0 0 0
-0 -0 -0 -0 0 0 0 0 -0 -0 -0 0 0 0 0 0 0 0 0 0 0 0 0 0 0 0 0 0 0 0 0 0 0 0 0 0 0 0 0 0 0 0 0
-0 -0 -0 -0 -0 -0 -0 -0 -0 -0 0 0 0 0 0 0 0 0 0 0 0 0 0 0 0 0 0 0 0 0 0 0 0 0 0 0 0 0 0 0 0 0 0
-0 -0 -0 -0 -0 -0 -0 -0 -0 -0 -0 0 0 0 0 0 0 0 0 0 0 0 0 0 0 0 0 0 0 0 0 0 0 0 0 0 0 0 0 0 0 0 0
-0 -0 -0 -0 -0 -0 -0 -0 -0 -0 -0 -0 -0 0 0 0 0 0 0 0 0 0 0 0 0 0 0 0 0 0 0 0 0 0 0 0 0 0 0 0 0 0 0
-0 -0 -0 -0 -0 -0 -0 -0 -0 -0 -0 -0 -0 -0 -0 -0 0 0 0 0 0 0 0 0 0 0 0 0 0 0 0 0 0 0 0 0 0 0 0 0 0 0 0
Wind_Speed_500mb
49 46 39 38 38 36 33 32 32 32 32 29 24 21 18 16 14 14 17 20 20 21 20 22 21 18 22 19 22 24 21 18 20 23 24 24 24 25 26 28 29 27 26
50 46 42 39 37 37 34 31 32 33 29 25 22 19 16 13 12 11 12 17 21 25 21 22 22 16 21 23 24 22 18 16 17 19 20 19 19 20 20 23 26 25 22
46 42 39 38 35 32 32 32 33 29 25 22 19 15 11 9 8 8 10 12 16 26 27 22 25 24 26 24 22 18 15 11 13 12 13 13 13 12 14 18 20 22 18
40 38 39 40 33 31 29 30 29 24 21 19 15 11 8 7 7 9 10 10 13 20 23 24 25 24 24 23 20 17 14 10 10 8 6 7 10 10 10 13 14 15 11
36 34 36 36 35 29 27 25 23 20 17 14 11 9 8 7 8 10 11 11 14 19 19 23 29 26 24 23 19 17 13 9 6 4 3 3 5 8 11 13 12 9 6
24 35 32 31 28 27 25 23 21 18 15 13 10 7 5 6 8 9 10 10 12 17 23 25 25 24 24 23 20 18 16 13 12 10 7 9 11 15 17 15 11 7 2
2 32 31 28 26 24 23 22 21 18 16 14 11 8 5 6 8 8 11 14 15 17 19 20 21 21 21 21 21 20 19 16 15 13 11 16 19 20 17 14 12 9 5
7 23 28 25 24 24 24 24 23 20 17 15 12 9 8 9 9 10 12 14 16 17 18 18 18 18 18 18 18 20 18 16 15 14 15 15 15 15 13 11 9 7 6
16 23 16 21 23 24 23 24 23 21 19 18 14 11 8 8 10 11 12 12 12 13 14 15 16 17 16 15 13 13 12 13 14 14 15 14 12 13 10 10 7 5 4
23 22 23 23 20 23 23 23 24 23 22 21 19 14 11 10 10 11 12 12 12 13 14 15 16 17 16 14 12 12 13 14 15 17 17 17 14 13 11 10 8 7 6
15 14 22 24 23 24 29 24 30 29 27 26 25 20 17 16 16 16 15 15 14 14 14 15 17 16 15 13 11 11 13 15 17 17 15 12 10 11 13 13 11 10 8
38 22 7 14 18 23 27 30 29 30 31 28 31 28 24 22 22 21 22 20 19 18 18 19 20 20 19 17 14 13 16 17 20 20 19 17 14 18 18 18 16 17 17
45 36 34 20 2 18 29 32 32 35 35 35 34 33 30 29 28 29 29 28 26 25 25 25 25 24 24 23 23 20 20 20 21 23 23 22 22 21 20 22 23 24 24
54 41 41 23 13 11 12 33 35 37 39 39 40 40 38 37 36 36 35 34 32 30 30 30 30 31 30 30 30 28 25 23 23 24 27 26 27 26 26 26 27 29 30
67 64 47 37 26 19 18 9 40 40 42 48 46 47 45 46 44 42 42 41 39 37 37 37 37 37 35 35 35 34 30 26 26 27 28 31 32 31 31 31 32 33 34
71 69 63 52 42 38 18 22 19 14 35 34 52 60 57 55 49 51 50 49 47 44 41 40 42 42 40 40 41 40 36 32 31 32 33 33 34 34 34 33 33 32 31
73 72 69 62 58 42 40 34 29 25 24 20 40 29 65 64 58 56 56 55 54 50 46 46 46 49 49 47 44 43 43 41 38 37 37 37 36 36 34 34 34 33 37
65 70 68 68 60 57 54 45 37 36 32 19 38 42 36 44 56 62 66 61 53 50 53 53 53 52 51 50 50 46 45 49 46 43 42 40 38 38 38 35 36 38 42
64 65 65 66 68 65 57 52 53 41 38 34 33 27 33 20 33 63 69 74 64 60 59 54 57 54 54 55 55 45 50 52 52 49 48 44 42 41 41 39 39 40 41
63 63 65 66 66 67 63 60 53 53 50 45 36 39 35 35 38 33 48 76 75 72 70 66 61 59 66 65 61 59 61 59 60 58 56 54 48 45 43 43 43 42 40
67 69 70 70 74 72 70 73 69 64 58 57 53 46 40 45 44 36 39 42 70 72 77 74 72 70 69 70 66 71 73 70 69 69 62 65 58 51 48 47 47 45 43
67 70 73 73 72 72 70 69 70 69 64 62 58 61 58 51 50 56 47 37 37 63 77 79 87 84 81 78 75 76 66 73 83 77 73 74 69 59 56 53 50 49 48
67 71 70 69 70 69 70 69 67 64 65 66 65 66 67 65 56 50 51 55 45 33 57 80 87 98 93 91 88 79 29 45 59 62 68 74 78 71 63 57 55 54 52
64 68 71 70 69 65 65 69 72 73 74 71 74 73 71 69 69 61 55 57 57 57 39 37 87 92 98 111 101 98 98 81 50 36 51 59 69 73 68 63 60 58 56
61 70 75 71 68 65 63 62 65 67 69 70 70 71 71 72 73 74 71 63 58 54 50 54 29 60 87 111 118 110 103 104 99 86 68 62 63 62 64 66 61 60 60
57 64 73 69 64 66 66 64 64 65 68 72 75 77 76 76 76 77 79 77 72 66 60 58 52 48 42 85 110 117 114 115 110 106 92 83 80 74 72 69 65 62 60
Wind_Direction_500mb
169 170 171 171 167 164 162 159 156 153 151 149 148 148 146 144 142 135 130 138 142 118 131 134 135 139 131 128 130 127 120 109 94 82 72 63 60 61 60 53 49 53 58
167 176 168 169 165 169 159 156 155 154 153 152 152 151 150 152 151 145 134 136 148 140 132 143 158 147 146 138 139 138 132 118 99 85 70 59 51 43 46 46 45 47 54
174 173 163 165 167 159 157 160 158 157 155 152 151 151 159 169 177 183 166 164 156 166 146 140 142 154 149 149 152 153 149 136 114 91 72 56 38 29 29 30 31 34 47
183 176 165 170 168 162 159 161 160 160 157 155 155 163 174 193 206 210 199 200 183 183 162 148 156 150 154 159 165 169 165 157 134 108 81 44 5 14 358 357 7 19 39
182 185 171 174 177 174 171 166 167 165 165 167 170 177 183 190 207 209 212 208 190 162 164 159 157 159 164 169 176 187 194 200 205 213 249 317 323 310 324 334 338 3 34
189 191 182 177 182 182 177 178 178 177 180 182 184 187 185 184 183 177 170 163 147 145 148 157 166 172 178 184 194 208 218 229 249 254 252 240 267 302 308 310 314 321 326
164 196 189 186 191 190 188 188 190 194 198 196 197 195 184 165 158 148 137 135 137 138 149 160 170 177 183 191 201 213 228 238 250 258 256 239 259 279 293 295 301 301 285
29 194 195 195 202 201 202 202 202 205 210 211 209 207 192 172 167 156 144 138 134 136 145 152 159 171 179 189 201 215 228 244 256 271 278 278 280 288 287 286 290 299 295
154 165 208 221 212 212 215 212 212 218 221 221 224 229 217 194 178 171 165 160 156 155 155 157 157 157 161 169 182 204 225 246 262 274 284 282 286 296 286 280 281 285 282
146 167 188 204 235 229 222 224 226 229 230 231 230 229 231 224 213 201 194 186 182 176 175 174 171 173 178 187 204 221 240 254 268 279 281 280 280 287 291 293 289 293 292
131 154 183 199 217 225 243 229 249 235 239 238 235 234 235 233 231 222 215 211 205 200 195 192 191 193 199 206 220 241 257 272 282 286 295 302 269 275 283 285 271 264 268
39 51 67 188 219 239 229 238 247 260 250 245 239 238 236 237 237 235 230 227 223 218 217 214 215 214 217 222 235 253 269 282 284 283 283 287 281 268 272 273 269 261 263
27 30 29 33 71 264 244 226 248 260 264 258 251 244 245 241 239 236 235 234 233 230 229 230 232 234 236 241 246 252 266 278 284 281 278 279 279 277 272 265 265 266 265
30 21 22 25 358 279 326 230 238 247 258 253 260 252 246 249 246 244 243 243 242 243 242 242 242 244 244 247 253 255 262 273 286 285 279 276 275 277 276 268 264 266 269
33 28 21 12 13 1 277 286 244 246 247 253 253 252 255 253 251 251 250 250 249 247 245 246 247 249 250 252 255 257 260 271 283 286 281 275 273 276 276 270 265 265 267
32 33 28 20 11 5 352 342 298 267 253 262 255 250 252 259 260 253 252 253 252 250 250 249 252 255 258 257 258 258 260 266 272 281 282 277 274 274 274 267 263 262 262
31 28 29 30 25 16 0 349 352 285 278 278 266 290 249 251 258 261 258 255 257 257 254 251 250 252 251 252 258 254 259 264 268 273 278 276 273 271 270 266 261 259 262
26 24 23 22 26 24 20 16 354 340 333 310 262 272 278 275 252 259 258 255 259 259 259 255 253 251 251 253 254 251 266 266 266 270 272 273 271 270 267 263 259 257 259
21 19 18 15 15 16 18 15 14 9 352 343 322 292 284 303 283 262 258 251 250 254 255 258 256 250 257 252 251 258 260 264 271 269 269 270 270 266 264 261 260 259 260
26 22 18 15 12 9 5 7 10 8 5 2 337 329 298 304 270 286 269 267 251 247 247 249 251 249 255 254 256 256 259 259 264 267 270 267 264 264 262 260 258 258 257
26 22 18 12 11 8 5 0 359 359 358 355 355 358 333 318 301 309 298 285 261 247 249 249 248 245 253 254 251 255 258 258 260 263 267 266 263 261 261 259 256 254 253
21 19 16 14 10 8 6 5 1 357 355 355 352 352 348 340 324 303 307 307 273 273 260 252 248 245 243 248 244 249 252 257 257 258 261 263 263 258 257 257 253 251 250
14 11 8 7 5 4 2 358 354 349 350 346 345 347 348 345 339 330 314 298 301 316 278 268 263 246 243 245 245 241 232 240 258 258 254 258 256 256 255 253 252 250 249
8 5 2 1 360 358 356 356 358 358 356 354 349 346 343 344 345 340 329 321 301 293 300 298 273 269 254 240 241 241 243 249 250 257 253 256 252 252 253 252 250 250 250
5 2 359 359 0 0 358 356 353 350 350 348 346 342 341 341 342 343 339 329 322 308 298 286 306 284 264 250 243 242 241 240 243 245 252 254 252 250 249 251 250 248 249
356 355 355 354 357 358 357 356 354 350 346 343 343 343 342 339 338 338 338 336 332 324 312 299 293 281 281 258 249 249 243 240 239 242 245 247 250 252 249 246 248 248 246
Wind_Speed_850mb
49 46 39 38 38 36 33 32 32 32 32 29 24 21 18 16 14 14 17 20 20 21 20 22 21 18 22 19 22 24 21 18 20 23 24 24 24 25 26 28 29 27 26
50 46 42 39 37 37 34 31 32 33 29 25 22 19 16 13 12 11 12 17 21 25 21 22 22 16 21 23 24 22 18 16 17 19 20 19 19 20 20 23 26 25 22
46 42 39 38 35 32 32 32 33 29 25 22 19 15 11 9 8 8 10 12 16 26 27 22 25 24 26 24 22 18 15 11 13 12 13 13 13 12 14 18 20 22 18
40 38 39 40 33 31 29 30 29 24 21 19 15 11 8 7 7 9 10 10 13 20 23 24 25 24 24 23 20 17 14 10 10 8 6 7 10 10 10 13 14 15 11
36 34 36 36 35 29 27 25 23 20 17 14 11 9 8 7 8 10 11 11 14 19 19 23 29 26 24 23 19 17 13 9 6 4 3 3 5 8 11 13 12 9 6
24 35 32 31 28 27 25 23 21 18 15 13 10 7 5 6 8 9 10 10 12 17 23 25 25 24 24 23 20 18 16 13 12 10 7 9 11 15 17 15 11 7 2
2 32 31 28 26 24 23 22 21 18 16 14 11 8 5 6 8 8 11 14 15 17 19 20 21 21 21 21 21 20 19 16 15 13 11 16 19 20 17 14 12 9 5
7 23 28 25 24 24 24 24 23 20 17 15 12 9 8 9 9 10 12 14 16 17 18 18 18 18 18 18 18 20 18 16 15 14 15 15 15 15 13 11 9 7 6
16 23 16 21 23 24 23 24 23 21 19 18 14 11 8 8 10 11 12 12 12 13 14 15 16 17 16 15 13 13 12 13 14 14 15 14 12 13 10 10 7 5 4
23 22 23 23 20 23 23 23 24 23 22 21 19 14 11 10 10 11 12 12 12 13 14 15 16 17 16 14 12 12 13 14 15 17 17 17 14 13 11 10 8 7 6
15 14 22 24 23 24 29 24 30 29 27 26 25 20 17 16 16 16 15 15 14 14 14 15 17 16 15 13 11 11 13 15 17 17 15 12 10 11 13 13 11 10 8
38 22 7 14 18 23 27 30 29 30 31 28 31 28 24 22 22 21 22 20 19 18 18 19 20 20 19 17 14 13 16 17 20 20 19 17 14 18 18 18 16 17 17
45 36 34 20 2 18 29 32 32 35 35 35 34 33 30 29 28 29 29 28 26 25 25 25 25 24 24 23 23 20 20 20 21 23 23 22 22 21 20 22 23 24 24
54 41 41 23 13 11 12 33 35 37 39 39 40 40 38 37 36 36 35 34 32 30 30 30 30 31 30 30 30 28 25 23 23 24 27 26 27 26 26 26 27 29 30
67 64 47 37 26 19 18 9 40 40 42 48 46 47 45 46 44 42 42 41 39 37 37 37 37 37 35 35 35 34 30 26 26 27 28 31 32 31 31 31 32 33 34
71 69 63 52 42 38 18 22 19 14 35 34 52 60 57 55 49 51 50 49 47 44 41 40 42 42 40 40 41 40 36 32 31 32 33 33 34 34 34 33 33 32 31
73 72 69 62 58 42 40 34 29 25 24 20 40 29 65 64 58 56 56 55 54 50 46 46 46 49 49 47 44 43 43 41 38 37 37 37 36 36 34 34 34 33 37
65 70 68 68 60 57 54 45 37 36 32 19 38 42 36 44 56 62 66 61 53 50 53 53 53 52 51 50 50 46 45 49 46 43 42 40 38 38 38 35 36 38 42
64 65 65 66 68 65 57 52 53 41 38 34 33 27 33 20 33 63 69 74 64 60 59 54 57 54 54 55 55 45 50 52 52 49 48 44 42 41 41 39 39 40 41
63 63 65 66 66 67 63 60 53 53 50 45 36 39 35 35 38 33 48 76 75 72 70 66 61 59 66 65 61 59 61 59 60 58 56 54 48 45 43 43 43 42 40
67 69 70 70 74 72 70 73 69 64 58 57 53 46 40 45 44 36 39 42 70 72 77 74 72 70 69 70 66 71 73 70 69 69 62 65 58 51 48 47 47 45 43
67 70 73 73 72 72 70 69 70 69 64 62 58 61 58 51 50 56 47 37 37 63 77 79 87 84 81 78 75 76 66 73 83 77 73 74 69 59 56 53 50 49 48
67 71 70 69 70 69 70 69 67 64 65 66 65 66 67 65 56 50 51 55 45 33 57 80 87 98 93 91 88 79 29 45 59 62 68 74 78 71 63 57 55 54 52
64 68 71 70 69 65 65 69 72 73 74 71 74 73 71 69 69 61 55 57 57 57 39 37 87 92 98 111 101 98 98 81 50 36 51 59 69 73 68 63 60 58 56
61 70 75 71 68 65 63 62 65 67 69 70 70 71 71 72 73 74 71 63 58 54 50 54 29 60 87 111 118 110 103 104 99 86 68 62 63 62 64 66 61 60 60
57 64 73 69 64 66 66 64 64 65 68 72 75 77 76 76 76 77 79 77 72 66 60 58 52 48 42 85 110 117 114 115 110 106 92 83 80 74 72 69 65 62 60
Wind_Direction_850mb
169 170 171 171 167 164 162 159 156 153 151 149 148 148 146 144 142 135 130 138 142 118 131 134 135 139 131 128 130 127 120 109 94 82 72 63 60 61 60 53 49 53 58
167 176 168 169 165 169 159 156 155 154 153 152 152 151 150 152 151 145 134 136 148 140 132 143 158 147 146 138 139 138 132 118 99 85 70 59 51 43 46 46 45 47 54
174 173 163 165 167 159 157 160 158 157 155 152 151 151 159 169 177 183 166 164 156 166 146 140 142 154 149 149 152 153 149 136 114 91 72 56 38 29 29 30 31 34 47
183 176 165 170 168 162 159 161 160 160 157 155 155 163 174 193 206 210 199 200 183 183 162 148 156 150 154 159 165 169 165 157 134 108 81 44 5 14 358 357 7 19 39
182 185 171 174 177 174 171 166 167 165 165 167 170 177 183 190 207 209 212 208 190 162 164 159 157 159 164 169 176 187 194 200 205 213 249 317 323 310 324 334 338 3 34
189 191 182 177 182 182 177 178 178 177 180 182 184 187 185 184 183 177 170 163 147 145 148 157 166 172 178 184 194 208 218 229 249 254 252 240 267 302 308 310 314 321 326
164 196 189 186 191 190 188 188 190 194 198 196 197 195 184 165 158 148 137 135 137 138 149 160 170 177 183 191 201 213 228 238 250 258 256 239 259 279 293 295 301 301 285
29 194 195 195 202 201 202 202 202 205 210 211 209 207 192 172 167 156 144 138 134 136 145 152 159 171 179 189 201 215 228 244 256 271 278 278 280 288 287 286 290 299 295
154 165 208 221 212 212 215 212 212 218 221 221 224 229 217 194 178 171 165 160 156 155 155 157 157 157 161 169 182 204 225 246 262 274 284 282 286 296 286 280 281 285 282
146 167 188 204 235 229 222 224 226 229 230 231 230 229 231 224 213 201 194 186 182 176 175 174 171 173 178 187 204 221 240 254 268 279 281 280 280 287 291 293 289 293 292
131 154 183 199 217 225 243 229 249 235 239 238 235 234 235 233 231 222 215 211 205 200 195 192 191 193 199 206 220 241 257 272 282 286 295 302 269 275 283 285 271 264 268
39 51 67 188 219 239 229 238 247 260 250 245 239 238 236 237 237 235 230 227 223 218 217 214 215 214 217 222 235 253 269 282 284 283 283 287 281 268 272 273 269 261 263
27 30 29 33 71 264 244 226 248 260 264 258 251 244 245 241 239 236 235 234 233 230 229 230 232 234 236 241 246 252 266 278 284 281 278 279 279 277 272 265 265 266 265
30 21 22 25 358 279 326 230 238 247 258 253 260 252 246 249 246 244 243 243 242 243 242 242 242 244 244 247 253 255 262 273 286 285 279 276 275 277 276 268 264 266 269
33 28 21 12 13 1 277 286 244 246 247 253 253 252 255 253 251 251 250 250 249 247 245 246 247 249 250 252 255 257 260 271 283 286 281 275 273 276 276 270 265 265 267
32 33 28 20 11 5 352 342 298 267 253 262 255 250 252 259 260 253 252 253 252 250 250 249 252 255 258 257 258 258 260 266 272 281 282 277 274 274 274 267 263 262 262
31 28 29 30 25 16 0 349 352 285 278 278 266 290 249 251 258 261 258 255 257 257 254 251 250 252 251 252 258 254 259 264 268 273 278 276 273 271 270 266 261 259 262
26 24 23 22 26 24 20 16 354 340 333 310 262 272 278 275 252 259 258 255 259 259 259 255 253 251 251 253 254 251 266 266 266 270 272 273 271 270 267 263 259 257 259
21 19 18 15 15 16 18 15 14 9 352 343 322 292 284 303 283 262 258 251 250 254 255 258 256 250 257 252 251 258 260 264 271 269 269 270 270 266 264 261 260 259 260
26 22 18 15 12 9 5 7 10 8 5 2 337 329 298 304 270 286 269 267 251 247 247 249 251 249 255 254 256 256 259 259 264 267 270 267 264 264 262 260 258 258 257
26 22 18 12 11 8 5 0 359 359 358 355 355 358 333 318 301 309 298 285 261 247 249 249 248 245 253 254 251 255 258 258 260 263 267 266 263 261 261 259 256 254 253
21 19 16 14 10 8 6 5 1 357 355 355 352 352 348 340 324 303 307 307 273 273 260 252 248 245 243 248 244 249 252 257 257 258 261 263 263 258 257 257 253 251 250
14 11 8 7 5 4 2 358 354 349 350 346 345 347 348 345 339 330 314 298 301 316 278 268 263 246 243 245 245 241 232 240 258 258 254 258 256 256 255 253 252 250 249
8 5 2 1 360 358 356 356 358 358 356 354 349 346 343 344 345 340 329 321 301 293 300 298 273 269 254 240 241 241 243 249 250 257 253 256 252 252 253 252 250 250 250
5 2 359 359 0 0 358 356 353 350 350 348 346 342 341 341 342 343 339 329 322 308 298 286 306 284 264 250 243 242 241 240 243 245 252 254 252 250 249 251 250 248 249
356 355 355 354 357 358 357 356 354 350 346 343 343 343 342 339 338 338 338 336 332 324 312 299 293 281 281 258 249 249 243 240 239 242 245 247 250 252 249 246 248 248 246